[[{"header":{"parameterUnit":"m.s-1","parameterCategory":1,"la1":30.2991,"la2":30.254,"lo1":-89.0895,"lo2":-89.0444,"dy":0.0017,"dx":0.0017,"nx":28,"ny":28,"refTime":"2024-05-25T21:00:00:Z","depth":0,"parameterNumber":2,"parameterNumberName":"U-component_of_WINDS"},"data":[0,0,0,0,0,0,0,0,0,0,0,0,0,0,0,0,0,0,0,0,0,0,0,0,0,0,0,0,0,0,0,0,0,0,0,0,0,0,0,0,0,0,0,0,0,0,0,0,0,0,0,0,0,0,0,0,0,0,-0.4552,-0.4552,0,-0.4591,-0.4592,-0.4592,-0.4616,-0.4616,-0.4616,-0.4616,-0.4658,-0.4659,-0.466,0,0,0,0,0,0,0,0,0,0,0,0,0,-0.4499,-0.45,-0.4552,-0.4552,-0.4553,-0.4591,-0.4592,-0.4592,-0.4616,-0.4616,-0.4616,-0.4616,-0.4657,-0.4659,-0.466,0,0,0,0,0,0,0,0,0,0,0,0,0,-0.4528,-0.45,-0.4552,-0.4569,-0.4571,-0.4591,-0.4592,-0.4592,-0.4616,-0.4616,-0.4616,-0.4616,-0.4657,-0.4658,-0.466,-0.4666,0,0,-0.4664,-0.4665,0,0,0,0,0,0,0,0,-0.4527,-0.453,-0.4566,-0.4568,-0.457,-0.4599,-0.4588,-0.4617,-0.4616,-0.4599,-0.4616,-0.4617,-0.4638,-0.4641,-0.4648,-0.4668,-0.4669,-0.4665,-0.4665,-0.4666,-0.4667,0,0,0,0,0,0,0,-0.4525,-0.4529,-0.4567,-0.4567,-0.4569,-0.4576,-0.458,-0.4594,-0.4617,-0.46,-0.4602,-0.4607,-0.4639,-0.4647,-0.4649,-0.467,-0.4665,-0.4666,-0.4667,-0.4667,-0.4698,-0.4698,0,0,0,0,0,0,-0.452,-0.4527,-0.4566,-0.4568,-0.4548,-0.4577,-0.4581,-0.4589,-0.4617,-0.4621,-0.4606,-0.4608,-0.4644,-0.4648,-0.4651,-0.466,-0.4666,-0.4667,-0.4668,-0.4698,-0.4698,-0.4698,0,0,0,0,0,0,-0.4518,-0.4523,-0.4564,-0.4548,-0.4554,-0.4577,-0.4586,-0.459,-0.4598,-0.4621,-0.4626,-0.461,-0.4644,-0.4649,-0.4662,-0.4662,-0.4668,-0.467,-0.4698,-0.4698,-0.4698,-0.4679,0,0,0,0,0,0,-0.4517,-0.4522,-0.4524,-0.4548,-0.4555,-0.4574,-0.4586,-0.4591,-0.46,-0.4602,-0.4626,-0.463,-0.4645,-0.466,-0.4664,-0.4664,-0.4671,-0.4698,-0.4698,-0.4698,-0.468,-0.4678,-0.4677,0,0,0,0,0,-0.4515,-0.4517,-0.4524,-0.4529,-0.4557,-0.4574,-0.4578,-0.4595,-0.46,-0.4602,-0.4618,-0.4629,-0.4662,-0.4661,-0.4665,-0.4667,-0.4698,-0.4698,-0.4698,-0.468,-0.4678,-0.4677,0,0,0,0,0,0,-0.4492,-0.452,-0.4528,-0.4538,-0.4554,-0.4578,-0.4582,-0.4592,-0.4607,-0.4608,-0.4629,-0.4634,-0.4646,-0.4658,-0.4656,-0.4675,-0.4681,-0.4682,-0.4666,-0.4665,-0.4663,-0.466,-0.4672,0,0,0,0,0,-0.4488,-0.4499,-0.4523,-0.453,-0.4537,-0.4558,-0.4566,-0.4578,-0.4595,-0.4602,-0.4618,-0.4634,-0.4649,-0.4657,-0.4672,-0.4682,-0.4688,-0.4685,-0.4684,-0.4682,-0.4683,-0.469,-0.4689,-0.4697,-0.4697,-0.4697,0,0,-0.448,-0.4497,-0.4503,-0.4526,-0.4539,-0.455,-0.4563,-0.4575,-0.4584,-0.4603,-0.4617,-0.463,-0.465,-0.4662,-0.4668,-0.4672,-0.4682,-0.4682,-0.4681,-0.4682,-0.469,-0.4689,-0.4688,-0.4697,-0.4697,-0.4697,0,0,-0.4472,-0.4485,-0.4493,-0.4506,-0.4526,-0.454,-0.4542,-0.4566,-0.4575,-0.4589,-0.4605,-0.4616,-0.464,-0.4654,-0.4664,-0.4662,-0.4674,-0.4667,-0.4659,-0.4666,-0.4666,-0.4665,-0.4666,-0.4665,-0.4667,-0.4667,-0.4667,0,-0.4459,-0.4477,-0.4495,-0.4506,-0.4516,-0.4535,-0.4543,-0.4555,-0.4579,-0.4586,-0.459,-0.4622,-0.4636,-0.4652,-0.4652,-0.466,-0.4663,-0.4664,-0.4664,-0.4664,-0.4664,-0.4665,-0.4664,-0.4666,-0.4666,-0.4666,-0.4666,0,-0.4461,-0.4473,-0.4477,-0.4499,-0.451,-0.4519,-0.454,-0.4549,-0.4561,-0.4575,-0.459,-0.4608,-0.4627,-0.4632,-0.4643,-0.465,-0.4652,-0.466,-0.4667,-0.4662,-0.4663,-0.4663,-0.4665,-0.4665,-0.4665,-0.4665,0,0,-0.4438,-0.4472,-0.4473,-0.4484,-0.4509,-0.4519,-0.453,-0.4548,-0.4556,-0.4572,-0.4583,-0.4603,-0.4611,-0.4622,-0.4636,-0.4642,-0.4641,-0.4649,-0.465,-0.4647,-0.4651,-0.4645,-0.4645,-0.4649,-0.4649,-0.4649,-0.465,0,-0.4433,-0.4453,-0.4471,-0.4485,-0.4497,-0.4516,-0.4526,-0.4542,-0.4556,-0.4569,-0.4585,-0.4599,-0.4608,-0.4615,-0.4623,-0.4639,-0.4642,-0.464,-0.4659,-0.466,-0.4653,-0.4646,-0.4639,-0.4639,-0.465,-0.465,-0.465,0,-0.443,-0.4446,-0.4461,-0.4486,-0.4491,-0.45,-0.4519,-0.4531,-0.4551,-0.4561,-0.4574,-0.4588,-0.4602,-0.4609,-0.4628,-0.4626,-0.4636,-0.4645,-0.4646,-0.4648,-0.4654,-0.4648,-0.4639,-0.4639,-0.4651,-0.4651,-0.4651,0,-0.4413,-0.4438,-0.445,-0.4459,-0.4488,-0.4494,-0.4506,-0.4526,-0.4537,-0.4554,-0.4561,-0.458,-0.459,-0.4605,-0.4624,-0.4627,-0.4642,-0.465,-0.4651,-0.4651,-0.4653,-0.4653,-0.4646,-0.4659,-0.4659,-0.4659,-0.4659,0,-0.4405,-0.4414,-0.4443,-0.4451,-0.4461,-0.4482,-0.4493,-0.4507,-0.4525,-0.4537,-0.4555,-0.4565,-0.459,-0.4604,-0.4619,-0.4634,-0.4638,-0.4647,-0.4651,-0.4646,-0.4645,-0.4652,-0.4652,-0.4659,-0.4659,-0.4659,-0.4659,0,-0.4387,-0.4407,-0.4422,-0.4449,-0.4456,-0.4462,-0.4486,-0.4495,-0.451,-0.4525,-0.4529,-0.4554,-0.4572,-0.4592,-0.4617,-0.4627,-0.4641,-0.4646,-0.4634,-0.4636,-0.4637,-0.4637,-0.4634,-0.4636,-0.4647,-0.4647,-0.4647,0,-0.4381,-0.4388,-0.4416,-0.4425,-0.4437,-0.4451,-0.4462,-0.4484,-0.4495,-0.4519,-0.4525,-0.4544,-0.4561,-0.4588,-0.4609,-0.4628,-0.4634,-0.4632,-0.4637,-0.4632,-0.4635,-0.4634,-0.4636,-0.4631,-0.4631,-0.463,-0.463,0,-0.4369,-0.4379,-0.4394,-0.4413,-0.4425,-0.4441,-0.4458,-0.4465,-0.449,-0.4502,-0.452,-0.4533,-0.4558,-0.4577,-0.4599,-0.4613,-0.4626,-0.4629,-0.463,-0.4625,-0.4617,-0.4622,-0.463,-0.4628,-0.4629,-0.4629,-0.4629,-0.4629,-0.4357,-0.4365,-0.4386,-0.4402,-0.4418,-0.4433,-0.4443,-0.446,-0.4476,-0.4498,-0.451,-0.4528,-0.455,-0.4581,-0.4595,-0.461,-0.4614,-0.4616,-0.4617,-0.4617,-0.4616,-0.4615,-0.4614,-0.4614,-0.4614,-0.4614,-0.4614,0,-0.4346,-0.4361,-0.4376,-0.4399,-0.4413,-0.4424,-0.4444,-0.4454,-0.447,-0.4489,-0.4505,-0.4527,-0.4546,-0.4568,-0.4589,-0.4597,-0.4604,-0.4602,-0.4602,-0.4605,-0.461,-0.4607,-0.4596,-0.4596,-0.4596,-0.4596,-0.4596,-0.4596,-0.4342,-0.4356,-0.4369,-0.4391,-0.4406,-0.4424,-0.4434,-0.4449,-0.4465,-0.4488,-0.4504,-0.4519,-0.454,-0.4562,-0.4581,-0.4587,-0.4594,-0.459,-0.4598,-0.4603,-0.4604,-0.4606,-0.4603,-0.4592,-0.4592,-0.4592,-0.4592,-0.4592]},{"header":{"parameterUnit":"m.s-1","parameterCategory":1,"la1":30.2991,"la2":30.254,"lo1":-89.0895,"lo2":-89.0444,"dy":0.0017,"dx":0.0017,"nx":28,"ny":28,"refTime":"2024-05-25T21:00:00:Z","depth":0,"parameterNumber":3,"parameterNumberName":"V-component_of_WINDS"},"data":[0,0,0,0,0,0,0,0,0,0,0,0,0,0,0,0,0,0,0,0,0,0,0,0,0,0,0,0,0,0,0,0,0,0,0,0,0,0,0,0,0,0,0,0,0,0,0,0,0,0,0,0,0,0,0,0,0,0,5.4951,5.4952,0,5.501,5.5011,5.5012,5.4955,5.4953,5.495,5.4948,5.5009,5.5012,5.5016,0,0,0,0,0,0,0,0,0,0,0,0,0,5.4789,5.4792,5.4951,5.4952,5.4953,5.501,5.5011,5.5012,5.4955,5.4952,5.495,5.4947,5.5008,5.5012,5.5016,0,0,0,0,0,0,0,0,0,0,0,0,0,5.4855,5.4793,5.4951,5.4931,5.493,5.501,5.5011,5.5012,5.4956,5.4952,5.4949,5.4946,5.5006,5.5012,5.5017,5.5119,0,0,5.5034,5.5037,0,0,0,0,0,0,0,0,5.4851,5.4861,5.4934,5.4933,5.4932,5.4972,5.4976,5.5048,5.4957,5.4946,5.4948,5.4944,5.4999,5.5005,5.5024,5.5122,5.5125,5.5035,5.5038,5.504,5.5042,0,0,0,0,0,0,0,5.4847,5.4858,5.4975,5.4935,5.4934,5.4919,5.4925,5.4989,5.4991,5.4947,5.4943,5.4951,5.4998,5.5018,5.5025,5.5126,5.5034,5.5039,5.5043,5.5045,5.5311,5.5315,0,0,0,0,0,0,5.4844,5.4855,5.4973,5.4976,5.4882,5.4925,5.4931,5.4962,5.499,5.4991,5.4953,5.4948,5.5011,5.5018,5.5027,5.5149,5.504,5.5046,5.5049,5.5308,5.5312,5.5316,0,0,0,0,0,0,5.4841,5.4855,5.497,5.4914,5.4928,5.4932,5.4967,5.4965,5.4986,5.4995,5.4995,5.4974,5.5008,5.5019,5.5097,5.515,5.5048,5.5053,5.5303,5.5309,5.5314,5.5394,0,0,0,0,0,0,5.4837,5.4855,5.4894,5.4916,5.4931,5.504,5.497,5.4969,5.4995,5.4989,5.5015,5.5016,5.5006,5.5089,5.5102,5.5156,5.5058,5.5299,5.5306,5.5313,5.5387,5.5402,5.5415,0,0,0,0,0,5.4831,5.4914,5.4896,5.4911,5.498,5.5043,5.5052,5.504,5.5,5.5039,5.5045,5.5015,5.5142,5.5097,5.5112,5.5168,5.5295,5.5304,5.5312,5.5381,5.5399,5.5414,0,0,0,0,0,0,5.4898,5.4916,5.4897,5.4989,5.5015,5.5033,5.5083,5.506,5.5097,5.5089,5.5072,5.5079,5.5162,5.5172,5.5122,5.5269,5.5212,5.5224,5.5259,5.5277,5.529,5.5287,5.5062,0,0,0,0,0,5.4924,5.4973,5.4986,5.5067,5.5081,5.508,5.5107,5.5095,5.5121,5.5132,5.5143,5.517,5.5216,5.5246,5.5289,5.5387,5.5393,5.5433,5.5447,5.5459,5.5469,5.5523,5.5541,5.5344,5.5344,5.5344,0,0,5.4977,5.4993,5.5025,5.508,5.5099,5.5151,5.5089,5.5147,5.5185,5.514,5.5215,5.5225,5.5253,5.5342,5.5382,5.5353,5.5525,5.5469,5.5478,5.5483,5.5533,5.5552,5.5569,5.535,5.5349,5.5348,0,0,5.5101,5.5118,5.5187,5.5207,5.5236,5.5234,5.5251,5.5273,5.5278,5.5352,5.532,5.5365,5.5444,5.5466,5.5487,5.5619,5.5592,5.5633,5.5706,5.5758,5.5774,5.5788,5.5836,5.5853,5.5643,5.5644,5.5644,0,5.5164,5.5241,5.5225,5.5285,5.5311,5.5272,5.5342,5.5362,5.5403,5.5422,5.5389,5.5488,5.5504,5.5598,5.563,5.5648,5.5667,5.5631,5.5773,5.5787,5.5799,5.5845,5.5863,5.5648,5.5648,5.5647,5.5647,0,5.5317,5.5371,5.5423,5.5464,5.5495,5.556,5.5554,5.5587,5.5572,5.5575,5.5651,5.5669,5.5715,5.5736,5.5722,5.5828,5.581,5.5775,5.5718,5.5823,5.5866,5.5883,5.5655,5.5654,5.5652,5.5651,0,0,5.5487,5.5518,5.5537,5.5556,5.5584,5.5626,5.5688,5.5733,5.5762,5.5792,5.5844,5.5912,5.5881,5.5905,5.5893,5.5939,5.6043,5.5899,5.5899,5.5926,5.6161,5.6188,5.6208,5.6024,5.6028,5.603,5.6159,0,5.5612,5.5722,5.5709,5.5814,5.5864,5.5827,5.5881,5.5905,5.5908,5.5951,5.5954,5.6003,5.5957,5.5972,5.6015,5.6021,5.609,5.6011,5.6074,5.6076,5.607,5.623,5.6259,5.638,5.6175,5.6178,5.618,0,5.5774,5.581,5.592,5.5941,5.5961,5.6011,5.6051,5.6092,5.6117,5.6116,5.6144,5.6123,5.6186,5.6127,5.6213,5.616,5.6184,5.6191,5.6195,5.6202,5.6136,5.6243,5.6418,5.6437,5.6206,5.6204,5.6202,0,5.5889,5.5964,5.6039,5.6056,5.6082,5.6118,5.613,5.6152,5.618,5.6215,5.6233,5.6274,5.6297,5.633,5.6321,5.6279,5.641,5.635,5.6412,5.6412,5.6443,5.6441,5.6626,5.6456,5.6456,5.6455,5.6455,0,5.6032,5.6101,5.6091,5.6138,5.6213,5.6198,5.6273,5.6281,5.6301,5.6349,5.6319,5.6364,5.6349,5.6393,5.6387,5.646,5.647,5.6471,5.6469,5.6475,5.6475,5.6492,5.6484,5.646,5.6459,5.6458,5.6457,0,5.6173,5.6169,5.6249,5.6267,5.6273,5.6329,5.6344,5.6388,5.6388,5.6448,5.6462,5.6462,5.6513,5.6507,5.6563,5.6559,5.665,5.6637,5.6642,5.664,5.6703,5.6697,5.6906,5.6933,5.6744,5.6746,5.6748,0,5.6265,5.6318,5.6341,5.6371,5.6386,5.6434,5.6462,5.6448,5.6479,5.6511,5.6552,5.6599,5.6637,5.6719,5.6725,5.6768,5.6756,5.6826,5.6763,5.6767,5.6759,5.6757,5.6762,5.6839,5.6842,5.6843,5.6845,0,5.643,5.6426,5.6467,5.6509,5.6543,5.6575,5.6604,5.6629,5.6618,5.6654,5.6705,5.6735,5.6792,5.684,5.688,5.6893,5.6868,5.6864,5.6881,5.6889,5.689,5.6892,5.6678,5.686,5.6859,5.6857,5.6857,5.6856,5.6551,5.6596,5.6619,5.6667,5.6687,5.6714,5.6756,5.6762,5.6804,5.6851,5.6839,5.6897,5.6921,5.6973,5.6989,5.7035,5.7009,5.7033,5.704,5.7046,5.7054,5.6881,5.7042,5.7041,5.7041,5.704,5.704,0,5.6715,5.6728,5.6772,5.6813,5.6851,5.6823,5.6853,5.6886,5.6938,5.6962,5.7,5.7059,5.7105,5.7114,5.7158,5.7192,5.7182,5.7204,5.7202,5.7206,5.7074,5.7056,5.7212,5.7212,5.7212,5.7212,5.7212,5.7212,5.6805,5.688,5.6878,5.6962,5.6974,5.7032,5.7051,5.7076,5.7096,5.7163,5.7201,5.7207,5.7225,5.727,5.7311,5.7312,5.733,5.7358,5.7355,5.7232,5.7215,5.7199,5.7181,5.7362,5.7362,5.7483,5.7484,5.7485]}]]